Regional Weather Roundup
Issued by NWS Sterling, VA

Home | Current Version | Previous Version | Graphics & Text | Print | Product List | Glossary On
Versions: 1 2 3 4 5 6 7 8 9 10 11 12 13 14 15 16 17 18 19 20 21 22 23 24 25 26 27 28 29 30 31 32 33 34 35 36 37 38 39 40 41 42 43 44 45 46 47 48 49 50
489
ASUS41 KLWX 230210
RWRLWX

REGIONAL WEATHER ROUNDUP
NATIONAL WEATHER SERVICE BALTIMORE MD/WASHINGTON DC
1000 PM EDT WED MAR 22 2017

Note: "FAIR" indicates few or no clouds below 12,000 feet
with no significant weather and/or obstructions to visibility.
 TC=TEMPERATURE CELSIUS

 * =Non NWS site. Station does not report precipitation (e.g. rain,
    snow, etc.), thunder, or fog.

DCZ001-MDZ009-015-VAZ040>042-051-053>054-230300-
WASHINGTON METRO

CITY           SKY/WX    TMP DP  RH WIND       PRES   REMARKS
WASHINGTON NAT CLEAR     40   6  24 N12       30.46R
DULLES         CLEAR     38   5  25 N9        30.44R
ANDREWS AFB    CLEAR     36   6  28 N8        30.43R
FT BELVOIR     CLEAR     40   5  23 N8        30.45R
QUANTICO       CLEAR     41  10  28 N12       30.46R
COLLEGE PARK*  PTCLDY    34   9  35 CALM      30.45R
LEESBURG*      CLEAR     37  12  35 N3        30.45R
MANASSAS*      PTCLDY    36   8  31 N9        30.46R WCI  29
GAITHERSBURG*  CLEAR     32   1  27 NW3       30.47R

$$

MDZ006>007-011-014-230300-
BALTIMORE METRO

CITY           SKY/WX    TMP DP  RH WIND       PRES   REMARKS
BWI AIRPORT    CLEAR     37   4  25 N3        30.44R
MD SCIENCE CTR   N/A     39   4  23 MISG      30.44R
MARTIN STATE   CLEAR     37   7  28 N8        30.46R
ANNAPOLIS      CLEAR     40  11  30 NE7       30.44R
FORT MEADE*    PTCLDY    36   5  27 N6        30.47R

$$

MDZ012-015-019>023-230300-
MARYLAND EASTERN SHORE

CITY           SKY/WX    TMP DP  RH WIND       PRES   REMARKS
OCEAN CITY     CLEAR     35  11  36 N12G20    30.42R WCI  27
SALISBURY      CLEAR     33  10  38 N7        30.43R
BAY BRIDGE AP* CLEAR     36  10  35 NE7       30.45R
CAMBRIDGE*     CLEAR     37   7  28 N8        30.44R
EASTON*        CLEAR     36   7  30 N7        30.48R

$$

MDZ017>025-230300-
SOUTHERN MARYLAND

CITY           SKY/WX    TMP DP  RH WIND       PRES   REMARKS
PATUXENT RIVER CLEAR     40  11  30 N14       30.43R
ST INIGOES     CLEAR     40  10  29 VRB3      30.43R
LEONARDTOWN*   CLEAR     37   7  28 CALM      30.45R

$$

MDZ003>005-230300-
NORTH CENTRAL MARYLAND

CITY           SKY/WX    TMP DP  RH WIND       PRES   REMARKS
FREDERICK*     NOT AVBL
HAGERSTOWN APT CLEAR     33   6  32 NE3       30.44R
WESTMINSTER*   PTCLDY    34   7  32 N3        30.42R

$$

MDZ501>502-230300-
WESTERN MARYLAND

CITY           SKY/WX    TMP DP  RH WIND       PRES   REMARKS
OAKLAND*       CLEAR     23   3  42 NW6       30.36R
CUMBERLAND*    CLEAR     36   5  27 N9        30.50R WCI  29

$$

VAZ025>031-230300-
SHENANDOAH VALLEY

CITY           SKY/WX    TMP DP  RH WIND       PRES   REMARKS
WINCHESTER*    CLEAR     34   7  32 NW7       30.44R
FRONT ROYAL*   CLEAR     34   9  35 CALM      30.43R
LURAY*         CLEAR     36  14  41 CALM      30.43R
NEW MARKET*    CLEAR     31  12  46 CALM      30.42R
STAUNTON*      CLEAR     33  10  37 NE6       30.42R
WAYNESBORO*    CLEAR     35  11  37 N6        30.39R

$$

WVZ021-048>050-054>055-230300-
EASTERN WEST VIRGINIA PANHANDLE

CITY           SKY/WX    TMP DP  RH WIND       PRES   REMARKS
MARTINSBURG    CLEAR     36   4  26 N9        30.44R WCI  29
PETERSBURG*    CLEAR     33  14  44 CALM      30.46R

$$

VAZ036>039-050-230300-
CENTRAL FOOTHILLS

CITY           SKY/WX    TMP DP  RH WIND       PRES   REMARKS
CHARLOTTESVILL CLEAR     41   9  26 N8        30.41R
CULPEPER*      PTCLDY    38   8  29 CALM      30.46R
ORANGE*        CLEAR     36  10  35 N5        30.44R
GORDONSVILLE*  CLEAR     37  12  36 N3        30.42R
WARRENTON*     PTCLDY    36   4  26 NE5       30.44R

$$

VAZ055>057-230300-
NORTH AND CENTRAL PIEDMONT

CITY           SKY/WX    TMP DP  RH WIND       PRES   REMARKS
FREDERICKSBRG* CLEAR     40  11  30 N7        30.44R
STAFFORD*      CLEAR     37   6  27 N6        30.48R

$$

NCZ024-NYZ072-PAZ021-071-VAZ022-071-230300-
OTHER REGIONAL OBSERVATIONS

CITY           SKY/WX    TMP DP  RH WIND       PRES   REMARKS
NEW YORK CITY  CLEAR     26  -4  27 MISG      30.42R
PHILADELPHIA   CLEAR     31  -4  22 N16G28    30.46R WCI  20
PITTSBURGH     PTCLDY    28   8  43 N9        30.49R WCI  19
ROANOKE        CLEAR     43  11  27 N8        30.40R
RICHMOND       CLEAR     40  12  32 NE7       30.41R
RALEIGH        PTCLDY    45  15  30 E7        30.37R

$$

ANZ530>537-230300-
MARINE OBSERVATIONS

STATION/POSITION TIME  TEMP    WIND        PRES
                       AIR SEA DIR/SP/G
                 (UTC) (F)     (DEG/KT/KT) (MB)
THOMAS PT LIGHT  0200   39 44   20/ 16/ 17   N/A
BALT KEY BRIDGE  0148   38      10/ 12/ 14 1030.9R
COVE POINT       0148   42     360/ 18/ 21 1030.9R
LEWISETTA        0148   43 48   10/  9/ 13 1030.1R
PINEY POINT      0142           10/ 12/ 14   N/A

$$





USA.gov is the U.S. government's official web portal to all federal, state and local government web resources and services.